�������l�o���
Date,Time,MP-1(��Sv/h),MP-2(��Sv/h),MP-3(��Sv/h),MP-4(��Sv/h),MP-5(��Sv/h),MP-6(��Sv/h),MP-7(��Sv/h),MP-8(��Sv/h),����,����(m/s),���J
2018/10/08,00:00,0.793,1.198,0.840,1.495,1.071,0.467,0.815,0.768,�k��,8.0,��
2018/10/08,00:10,0.797,1.200,0.840,1.495,1.069,0.465,0.814,0.769,�k��,9.1,��
2018/10/08,00:20,0.793,1.201,0.839,1.495,1.075,0.466,0.814,0.768,�k��,7.3,��
2018/10/08,00:30,0.794,1.202,0.843,1.498,1.075,0.466,0.814,0.768,�k��,6.5,��
2018/10/08,00:40,0.796,1.202,0.840,1.496,1.074,0.465,0.814,0.768,�k��,5.2,��
2018/10/08,00:50,0.795,1.202,0.839,1.496,1.074,0.467,0.815,0.767,�k�k��,7.0,��
2018/10/08,01:00,0.793,1.202,0.840,1.496,1.074,0.466,0.813,0.767,�k�k��,6.4,��
2018/10/08,01:10,0.792,1.201,0.840,1.497,1.075,0.465,0.813,0.769,�k�k��,5.7,��
2018/10/08,01:20,0.795,1.202,0.841,1.496,1.073,0.465,0.814,0.768,�k�k��,5.6,��
2018/10/08,01:30,0.795,1.201,0.841,1.496,1.071,0.465,0.813,0.768,�k�k��,5.0,��
2018/10/08,01:40,0.794,1.201,0.839,1.493,1.073,0.466,0.813,0.768,�k�k��,4.5,��
2018/10/08,01:50,0.794,1.200,0.841,1.495,1.074,0.465,0.815,0.768,�k�k��,4.4,��
2018/10/08,02:00,0.793,1.201,0.839,1.495,1.072,0.465,0.815,0.768,�k�k��,4.8,��
2018/10/08,02:10,0.792,1.202,0.840,1.496,1.074,0.467,0.815,0.769,�k��,4.1,��
2018/10/08,02:20,0.794,1.201,0.840,1.494,1.073,0.467,0.811,0.768,�k�k��,3.7,��
2018/10/08,02:30,0.795,1.200,0.840,1.495,1.076,0.465,0.814,0.767,�k�k��,3.9,��
2018/10/08,02:40,0.796,1.199,0.842,1.495,1.073,0.465,0.815,0.769,�k�k��,5.0,��
2018/10/08,02:50,0.794,1.201,0.841,1.493,1.072,0.465,0.813,0.768,�k�k��,5.4,��
2018/10/08,03:00,0.793,1.201,0.840,1.496,1.073,0.466,0.814,0.768,�k�k��,6.2,��
2018/10/08,03:10,0.795,1.201,0.841,1.498,1.072,0.466,0.814,0.766,�k��,5.5,��
2018/10/08,03:20,0.795,1.203,0.843,1.494,1.074,0.465,0.814,0.767,�k�k��,4.8,��
2018/10/08,03:30,0.793,1.201,0.841,1.496,1.075,0.466,0.814,0.768,�k��,5.0,��
2018/10/08,03:40,0.794,1.200,0.842,1.494,1.074,0.466,0.813,0.768,�k��,4.8,��
2018/10/08,03:50,0.794,1.201,0.841,1.495,1.070,0.465,0.811,0.769,�k��,4.3,��
2018/10/08,04:00,0.794,1.203,0.839,1.498,1.074,0.465,0.813,0.769,�k��,4.2,��
2018/10/08,04:10,0.794,1.201,0.842,1.493,1.073,0.464,0.813,0.768,�k��,4.4,��
2018/10/08,04:20,0.794,1.203,0.840,1.495,1.075,0.465,0.812,0.769,�k��,3.9,��
2018/10/08,04:30,0.795,1.200,0.841,1.494,1.073,0.465,0.812,0.768,�k��,3.8,��
2018/10/08,04:40,0.795,1.202,0.843,1.495,1.075,0.465,0.811,0.767,�k��,3.3,��
2018/10/08,04:50,0.794,1.201,0.840,1.494,1.073,0.466,0.811,0.768,�k��,3.6,��
2018/10/08,05:00,0.793,1.202,0.841,1.494,1.073,0.465,0.812,0.769,�k��,3.5,��
2018/10/08,05:10,0.794,1.201,0.841,1.497,1.072,0.466,0.811,0.768,�k��,3.5,��
2018/10/08,05:20,0.795,1.203,0.841,1.496,1.072,0.467,0.812,0.768,�k��,3.2,��
2018/10/08,05:30,0.795,1.201,0.842,1.496,1.075,0.466,0.810,0.768,�k��,3.4,��
2018/10/08,05:40,0.795,1.201,0.843,1.496,1.074,0.465,0.812,0.768,�k��,3.2,��
2018/10/08,05:50,0.794,1.202,0.840,1.496,1.074,0.465,0.812,0.768,�k��,3.1,��
2018/10/08,06:00,0.795,1.203,0.841,1.496,1.075,0.465,0.812,0.768,�k��,3.0,��
2018/10/08,06:10,0.795,1.201,0.840,1.495,1.072,0.465,0.810,0.770,�k��,2.8,��
2018/10/08,06:20,0.795,1.203,0.840,1.495,1.072,0.466,0.813,0.770,�k�k��,2.2,��
2018/10/08,06:30,0.795,1.201,0.842,1.495,1.074,0.466,0.811,0.769,�k�k��,1.9,��
2018/10/08,06:40,0.795,1.201,0.842,1.495,1.075,0.467,0.812,0.768,�k�k��,1.7,��
2018/10/08,06:50,0.794,1.201,0.841,1.496,1.073,0.466,0.811,0.769,�k,2.8,��
2018/10/08,07:00,0.795,1.201,0.843,1.495,1.073,0.464,0.812,0.768,�k,3.8,��
2018/10/08,07:10,0.793,1.201,0.842,1.495,1.074,0.465,0.811,0.769,�k,3.6,��
2018/10/08,07:20,0.795,1.199,0.842,1.496,1.073,0.465,0.814,0.768,�k�k��,3.5,��
2018/10/08,07:30,0.794,1.201,0.840,1.497,1.073,0.465,0.812,0.767,�k�k��,3.7,��
2018/10/08,07:40,0.792,1.198,0.840,1.495,1.074,0.465,0.811,0.767,�k�k��,2.8,��
2018/10/08,07:50,0.794,1.203,0.841,1.496,1.073,0.465,0.811,0.769,�k�k��,3.5,��
2018/10/08,08:00,0.794,1.202,0.840,1.497,1.074,0.465,0.813,0.767,�k�k��,3.6,��
2018/10/08,08:10,0.795,1.199,0.843,1.497,1.076,0.466,0.811,0.767,�k�k��,3.4,��
2018/10/08,08:20,0.794,1.200,0.842,1.498,1.074,0.464,0.812,0.768,�k,2.6,��
2018/10/08,08:30,0.794,1.202,0.841,1.494,1.073,0.464,0.812,0.768,�k,2.9,��
2018/10/08,08:40,0.795,1.203,0.842,1.497,1.073,0.465,0.813,0.766,�k,3.0,��
2018/10/08,08:50,0.791,1.200,0.842,1.496,1.075,0.463,0.811,0.767,�k�k��,2.6,��
2018/10/08,09:00,0.793,1.199,0.839,1.494,1.075,0.464,0.812,0.767,�k�k��,3.5,��
2018/10/08,09:10,0.793,1.200,0.837,1.499,1.073,0.464,0.810,0.765,�k�k��,3.9,��
2018/10/08,09:20,0.795,1.198,0.837,1.498,1.073,0.462,0.811,0.766,�k�k��,3.4,��
2018/10/08,09:30,0.793,1.198,0.838,1.497,1.072,0.464,0.812,0.765,�k��,2.9,��
2018/10/08,09:40,0.793,1.199,0.837,1.498,1.074,0.464,0.813,0.764,�k�k��,2.6,��
2018/10/08,09:50,0.790,1.198,0.839,1.496,1.071,0.465,0.813,0.765,�k�k��,2.6,��
2018/10/08,10:00,0.792,1.199,0.839,1.497,1.071,0.464,0.812,0.768,�k��,2.6,��
2018/10/08,10:10,0.794,1.197,0.839,1.496,1.072,0.464,0.811,0.765,�k��,2.6,��
2018/10/08,10:20,0.794,1.200,0.840,1.496,1.073,0.464,0.810,0.766,���k��,2.5,��
2018/10/08,10:30,0.792,1.198,0.838,1.495,1.075,0.464,0.813,0.764,���k��,2.5,��
2018/10/08,10:40,0.792,1.197,0.839,1.498,1.075,0.464,0.812,0.765,���k��,2.3,��
2018/10/08,10:50,0.794,1.199,0.837,1.498,1.074,0.465,0.813,0.766,�k��,2.6,��
2018/10/08,11:00,0.793,1.199,0.840,1.496,1.075,0.462,0.811,0.767,�k��,2.3,��
2018/10/08,11:10,0.794,1.201,0.840,1.497,1.077,0.465,0.813,0.767,���k��,2.2,��
2018/10/08,11:20,0.794,1.202,0.841,1.499,1.074,0.464,0.811,0.766,��,2.6,��
2018/10/08,11:30,0.795,1.201,0.839,1.497,1.075,0.465,0.812,0.767,���k��,2.6,��
2018/10/08,11:40,0.795,1.204,0.841,1.496,1.073,0.465,0.813,0.766,��,2.6,��
2018/10/08,11:50,0.794,1.202,0.840,1.495,1.076,0.466,0.813,0.766,��,2.6,��
2018/10/08,12:00,0.795,1.204,0.842,1.497,1.076,0.464,0.814,0.766,��,3.0,��
2018/10/08,12:10,0.794,1.204,0.841,1.497,1.076,0.464,0.814,0.767,��,3.2,��
2018/10/08,12:20,0.796,1.204,0.841,1.499,1.075,0.466,0.814,0.767,���쓌,2.6,��
2018/10/08,12:30,0.797,1.202,0.842,1.498,1.079,0.465,0.812,0.767,��,3.0,��
2018/10/08,12:40,0.794,1.205,0.842,1.497,1.078,0.465,0.813,0.767,��,2.8,��
2018/10/08,12:50,0.795,1.204,0.841,1.499,1.075,0.465,0.813,0.767,�쓌,3.0,��
2018/10/08,13:00,0.793,1.204,0.841,1.499,1.077,0.466,0.814,0.767,���쓌,2.3,��
2018/10/08,13:10,0.796,1.204,0.841,1.499,1.078,0.466,0.813,0.765,�쓌,3.4,��
2018/10/08,13:20,0.795,1.205,0.840,1.500,1.078,0.467,0.814,0.766,�쓌,3.3,��
2018/10/08,13:30,0.795,1.203,0.840,1.499,1.076,0.465,0.814,0.768,�쓌,2.5,��
2018/10/08,13:40,0.795,1.206,0.841,1.499,1.079,0.466,0.812,0.768,�쓌,3.3,��
2018/10/08,13:50,0.795,1.208,0.843,1.499,1.077,0.466,0.814,0.766,�쓌,3.7,��
2018/10/08,14:00,0.795,1.205,0.842,1.501,1.077,0.466,0.814,0.767,�쓌,3.6,��
2018/10/08,14:10,0.794,1.206,0.843,1.501,1.080,0.467,0.816,0.768,�쓌,3.6,��
2018/10/08,14:20,0.794,1.206,0.844,1.497,1.078,0.466,0.813,0.767,���쓌,2.5,��
2018/10/08,14:30,0.795,1.204,0.844,1.498,1.078,0.466,0.813,0.767,���쓌,3.5,��
2018/10/08,14:40,0.793,1.206,0.842,1.498,1.079,0.467,0.813,0.767,�쓌,3.0,��
2018/10/08,14:50,0.798,1.208,0.842,1.499,1.077,0.467,0.814,0.769,�쓌,3.2,��
2018/10/08,15:00,0.793,1.208,0.841,1.499,1.077,0.465,0.813,0.766,�쓌,3.0,��
2018/10/08,15:10,0.795,1.206,0.841,1.500,1.079,0.466,0.813,0.768,�쓌,3.7,��
2018/10/08,15:20,0.796,1.207,0.841,1.499,1.080,0.466,0.813,0.767,�쓌,3.6,��
2018/10/08,15:30,0.796,1.205,0.842,1.499,1.079,0.466,0.813,0.766,��쓌,3.7,��
2018/10/08,15:40,0.797,1.206,0.840,1.499,1.080,0.466,0.813,0.766,��쓌,3.8,��
2018/10/08,15:50,0.797,1.206,0.843,1.501,1.080,0.468,0.812,0.768,��쓌,4.1,��
2018/10/08,16:00,0.795,1.206,0.844,1.502,1.080,0.467,0.813,0.765,��쓌,4.1,��
2018/10/08,16:10,0.795,1.206,0.843,1.499,1.078,0.469,0.815,0.767,��쓌,4.4,��
2018/10/08,16:20,0.796,1.206,0.844,1.501,1.079,0.466,0.814,0.766,��쓌,4.4,��
2018/10/08,16:30,0.795,1.206,0.844,1.501,1.078,0.468,0.812,0.769,��,3.9,��
2018/10/08,16:40,0.797,1.207,0.843,1.497,1.079,0.468,0.814,0.769,��쓌,3.7,��
2018/10/08,16:50,0.798,1.213,0.844,1.500,1.078,0.468,0.817,0.768,��,4.5,��
2018/10/08,17:00,0.794,1.212,0.844,1.499,1.079,0.466,0.814,0.768,��,4.4,��
2018/10/08,17:10,0.795,1.211,0.842,1.500,1.079,0.466,0.815,0.768,��,5.2,��
2018/10/08,17:20,0.794,1.214,0.844,1.501,1.080,0.469,0.817,0.768,��,5.4,��
2018/10/08,17:30,0.797,1.213,0.845,1.500,1.081,0.468,0.814,0.769,��,4.9,��
2018/10/08,17:40,0.797,1.211,0.845,1.502,1.080,0.469,0.814,0.769,��,5.2,��
2018/10/08,17:50,0.796,1.211,0.847,1.500,1.082,0.468,0.815,0.769,��,4.7,��
2018/10/08,18:00,0.797,1.211,0.844,1.500,1.081,0.468,0.816,0.770,��,4.7,��
2018/10/08,18:10,0.798,1.209,0.844,1.502,1.084,0.467,0.815,0.769,��쐼,5.3,��
2018/10/08,18:20,0.796,1.210,0.846,1.502,1.083,0.468,0.816,0.769,��,5.5,��
2018/10/08,18:30,0.799,1.211,0.845,1.501,1.083,0.469,0.816,0.768,��쐼,5.6,��
2018/10/08,18:40,0.799,1.210,0.846,1.501,1.082,0.469,0.816,0.770,��,5.5,��
2018/10/08,18:50,0.799,1.208,0.845,1.500,1.079,0.467,0.815,0.771,��,5.4,��
2018/10/08,19:00,0.798,1.210,0.845,1.502,1.079,0.468,0.813,0.769,��쐼,4.7,��
2018/10/08,19:10,0.797,1.209,0.845,1.499,1.082,0.468,0.816,0.768,��쐼,5.0,��
2018/10/08,19:20,0.798,1.212,0.844,1.499,1.082,0.468,0.816,0.768,��쐼,4.2,��
2018/10/08,19:30,0.798,1.208,0.846,1.500,1.080,0.467,0.814,0.767,��쐼,3.9,��
2018/10/08,19:40,0.798,1.210,0.844,1.501,1.080,0.467,0.813,0.770,��쐼,4.2,��
2018/10/08,19:50,0.797,1.209,0.846,1.496,1.080,0.468,0.814,0.767,��쐼,4.3,��
2018/10/08,20:00,0.800,1.207,0.845,1.500,1.080,0.467,0.816,0.770,��쐼,4.2,��
2018/10/08,20:10,0.798,1.210,0.845,1.498,1.082,0.469,0.814,0.768,��쐼,4.3,��
2018/10/08,20:20,0.798,1.208,0.846,1.501,1.080,0.467,0.814,0.769,��,5.2,��
2018/10/08,20:30,0.798,1.208,0.845,1.500,1.081,0.469,0.814,0.768,��,5.2,��
2018/10/08,20:40,0.799,1.208,0.845,1.500,1.081,0.467,0.814,0.769,��,5.3,��
2018/10/08,20:50,0.799,1.209,0.845,1.499,1.079,0.466,0.814,0.768,��,5.5,��
2018/10/08,21:00,0.799,1.210,0.844,1.501,1.080,0.468,0.815,0.770,��,5.6,��
2018/10/08,21:10,0.797,1.209,0.846,1.501,1.080,0.467,0.815,0.768,��쐼,5.2,��
2018/10/08,21:20,0.797,1.209,0.847,1.500,1.079,0.467,0.816,0.769,��쐼,5.1,��
2018/10/08,21:30,0.798,1.208,0.844,1.500,1.080,0.467,0.815,0.770,��,5.4,��
2018/10/08,21:40,0.798,1.209,0.843,1.501,1.081,0.466,0.812,0.771,��,5.0,��
2018/10/08,21:50,0.796,1.209,0.842,1.499,1.080,0.467,0.815,0.769,��,4.7,��
2018/10/08,22:00,0.798,1.207,0.845,1.500,1.080,0.467,0.815,0.768,��,4.7,��
2018/10/08,22:10,0.797,1.205,0.843,1.499,1.080,0.467,0.814,0.770,��,3.9,��
2018/10/08,22:20,0.798,1.207,0.846,1.499,1.080,0.468,0.814,0.770,��쐼,3.5,��
2018/10/08,22:30,0.798,1.209,0.843,1.500,1.079,0.466,0.813,0.769,��,3.5,��
2018/10/08,22:40,0.798,1.208,0.845,1.502,1.080,0.467,0.815,0.769,��,3.4,��
2018/10/08,22:50,0.797,1.209,0.846,1.500,1.080,0.469,0.815,0.769,��,2.8,��
2018/10/08,23:00,0.798,1.207,0.845,1.499,1.079,0.466,0.815,0.770,��,2.8,��
2018/10/08,23:10,0.797,1.208,0.843,1.500,1.079,0.468,0.815,0.768,��,2.9,��
2018/10/08,23:20,0.797,1.207,0.844,1.501,1.081,0.467,0.815,0.768,��,2.8,��
2018/10/08,23:30,0.799,1.205,0.843,1.501,1.082,0.467,0.814,0.769,��,2.6,��
2018/10/08,23:40,0.797,1.207,0.846,1.499,1.079,0.466,0.814,0.770,��쐼,2.5,��
2018/10/08,23:50,0.797,1.208,0.844,1.501,1.079,0.467,0.815,0.769,��,2.6,��
